AUA189 LOWW-EDDM

Flight info

Callsign AUA189
Flight time 0h 36m
Altitude 26000
Route SOVIL DCT SITNI DCT BAGSI DCT MATIG DCT AMADI Q113 NAPSA
Aircraft A320/M-SD3FGHIRWY/LB1

Departure

Time 2026-05-07 19:19
Airport Vienna International Airport (LOWW)

Arrival

Time 2026-05-07 19:56
Airport Munich Airport (EDDM)
Time Latitude Longitude Altitude Speed Heading
2026-05-07 18:55 48.11674 16.56899 610 ft 0 kts 25°
2026-05-07 19:08 48.11656 16.56886 612 ft 4 kts 25°
2026-05-07 19:08 48.11631 16.56868 619 ft 4 kts 31°
2026-05-07 19:09 48.11611 16.56845 619 ft 4 kts 65°
2026-05-07 19:09 48.11609 16.56827 622 ft 0 kts 116°
2026-05-07 19:14 48.11605 16.56838 616 ft 5 kts 116°
2026-05-07 19:14 48.11585 16.56898 621 ft 6 kts 116°
2026-05-07 19:14 48.11559 16.56979 610 ft 11 kts 116°
2026-05-07 19:15 48.11523 16.57088 614 ft 11 kts 116°
2026-05-07 19:15 48.11492 16.57183 612 ft 10 kts 116°
2026-05-07 19:15 48.11461 16.57279 616 ft 11 kts 116°
2026-05-07 19:15 48.11412 16.57378 613 ft 12 kts 159°
2026-05-07 19:16 48.11332 16.57345 616 ft 13 kts 206°
2026-05-07 19:16 48.11248 16.57284 610 ft 13 kts 206°
2026-05-07 19:16 48.11169 16.57226 623 ft 9 kts 207°
2026-05-07 19:16 48.11158 16.57218 620 ft 0 kts 207°
2026-05-07 19:17 48.11157 16.57217 620 ft 2 kts 207°
2026-05-07 19:17 48.11121 16.57184 618 ft 10 kts 219°
2026-05-07 19:18 48.11082 16.57058 615 ft 17 kts 272°
2026-05-07 19:18 48.11107 16.56951 621 ft 3 kts 303°
2026-05-07 19:18 48.11115 16.56925 610 ft 0 kts 305°
2026-05-07 19:18 48.11118 16.56899 616 ft 12 kts 284°
2026-05-07 19:19 48.11208 16.56623 612 ft 57 kts 294°
2026-05-07 19:19 48.11483 16.55779 617 ft 121 kts 297°
2026-05-07 19:19 48.11937 16.54413 637 ft 167 kts 298°
2026-05-07 19:19 48.12490 16.52897 1265 ft 165 kts 299°
2026-05-07 19:20 48.12807 16.51312 1976 ft 159 kts 258°
2026-05-07 19:20 48.12312 16.49808 2413 ft 170 kts 235°
2026-05-07 19:20 48.11559 16.48334 2800 ft 186 kts 234°
2026-05-07 19:20 48.10729 16.46726 3152 ft 206 kts 234°
2026-05-07 19:21 48.09797 16.44979 3598 ft 224 kts 228°
2026-05-07 19:21 48.08688 16.43229 4101 ft 240 kts 231°
2026-05-07 19:21 48.07589 16.41230 4631 ft 257 kts 234°
2026-05-07 19:21 48.06487 16.39071 5341 ft 265 kts 235°
2026-05-07 19:22 48.05381 16.36843 6159 ft 269 kts 235°
2026-05-07 19:22 48.04267 16.34522 6961 ft 273 kts 241°
2026-05-07 19:22 48.03523 16.31927 7763 ft 273 kts 257°
2026-05-07 19:22 48.03313 16.29111 8561 ft 274 kts 272°
2026-05-07 19:23 48.03377 16.26247 9355 ft 278 kts 272°
2026-05-07 19:23 48.03433 16.23338 10119 ft 281 kts 272°
2026-05-07 19:23 48.03488 16.20358 10612 ft 295 kts 272°
2026-05-07 19:23 48.03544 16.17202 10994 ft 312 kts 271°
2026-05-07 19:24 48.03601 16.13926 11342 ft 328 kts 271°
2026-05-07 19:24 48.03659 16.10465 11891 ft 336 kts 271°
2026-05-07 19:24 48.03716 16.06960 12613 ft 339 kts 271°
2026-05-07 19:24 48.03772 16.03419 13332 ft 342 kts 271°
2026-05-07 19:25 48.03829 15.99852 14005 ft 346 kts 271°
2026-05-07 19:25 48.03886 15.96238 14615 ft 349 kts 271°
2026-05-07 19:25 48.03941 15.92597 15225 ft 352 kts 270°
2026-05-07 19:25 48.03996 15.88877 15840 ft 355 kts 270°
2026-05-07 19:26 48.04052 15.85176 16452 ft 358 kts 270°
2026-05-07 19:26 48.04108 15.81441 17061 ft 361 kts 270°
2026-05-07 19:26 48.04161 15.77677 17680 ft 364 kts 270°
2026-05-07 19:26 48.04213 15.73885 18266 ft 367 kts 270°
2026-05-07 19:27 48.04264 15.70062 18784 ft 370 kts 270°
2026-05-07 19:27 48.04312 15.66209 19314 ft 372 kts 270°
2026-05-07 19:27 48.04356 15.62331 19851 ft 374 kts 270°
2026-05-07 19:27 48.04399 15.58432 20388 ft 377 kts 270°
2026-05-07 19:28 48.04444 15.54513 20920 ft 379 kts 270°
2026-05-07 19:28 48.04492 15.50560 21446 ft 381 kts 270°
2026-05-07 19:28 48.04538 15.46585 21967 ft 384 kts 270°
2026-05-07 19:28 48.04580 15.42638 22449 ft 386 kts 270°
2026-05-07 19:29 48.04620 15.38616 22932 ft 389 kts 270°
2026-05-07 19:29 48.04667 15.34509 23417 ft 391 kts 270°
2026-05-07 19:29 48.04729 15.30484 23831 ft 394 kts 270°
2026-05-07 19:29 48.04802 15.26331 24223 ft 396 kts 270°
2026-05-07 19:30 48.04874 15.22210 24609 ft 398 kts 270°
2026-05-07 19:30 48.04944 15.18120 24978 ft 399 kts 270°
2026-05-07 19:30 48.05013 15.13918 25347 ft 401 kts 270°
2026-05-07 19:30 48.05077 15.09741 25711 ft 402 kts 270°
2026-05-07 19:31 48.05138 15.05556 25991 ft 403 kts 270°
2026-05-07 19:31 48.05199 15.01369 26053 ft 403 kts 270°
2026-05-07 19:31 48.05259 14.97186 26055 ft 402 kts 270°
2026-05-07 19:31 48.05311 14.93013 26054 ft 402 kts 270°
2026-05-07 19:32 48.05357 14.88892 26054 ft 402 kts 270°
2026-05-07 19:32 48.05405 14.84665 26052 ft 401 kts 270°
2026-05-07 19:32 48.05453 14.80491 26053 ft 401 kts 270°
2026-05-07 19:32 48.05495 14.76326 26056 ft 401 kts 270°
2026-05-07 19:33 48.05529 14.72165 26054 ft 401 kts 270°
2026-05-07 19:33 48.05557 14.68003 26056 ft 401 kts 270°
2026-05-07 19:33 48.05585 14.63835 26053 ft 401 kts 270°
2026-05-07 19:33 48.05612 14.59675 26054 ft 400 kts 270°
2026-05-07 19:34 48.05639 14.55518 26054 ft 400 kts 270°
2026-05-07 19:34 48.05667 14.51355 26056 ft 400 kts 270°
2026-05-07 19:34 48.05694 14.47196 26057 ft 400 kts 270°
2026-05-07 19:34 48.05718 14.43042 26058 ft 400 kts 270°
2026-05-07 19:35 48.05741 14.38889 26057 ft 400 kts 270°
2026-05-07 19:35 48.05761 14.34738 26058 ft 399 kts 270°
2026-05-07 19:35 48.05778 14.30587 26055 ft 399 kts 270°
2026-05-07 19:35 48.05795 14.26440 26055 ft 399 kts 270°
2026-05-07 19:36 48.05806 14.23695 26055 ft 399 kts 270°
2026-05-07 19:36 48.05823 14.19547 26058 ft 399 kts 270°
2026-05-07 19:36 48.05837 14.15405 26057 ft 398 kts 270°
2026-05-07 19:36 48.05846 14.11263 26058 ft 398 kts 270°
2026-05-07 19:37 48.05854 14.07131 26060 ft 398 kts 270°
2026-05-07 19:37 48.05860 14.02985 26060 ft 398 kts 270°
2026-05-07 19:37 48.05868 13.98856 26057 ft 397 kts 270°
2026-05-07 19:37 48.05877 13.94797 26061 ft 388 kts 270°
2026-05-07 19:38 48.05883 13.90762 26058 ft 387 kts 270°
2026-05-07 19:38 48.05886 13.86736 26062 ft 387 kts 270°
2026-05-07 19:38 48.05888 13.82714 26059 ft 387 kts 270°
2026-05-07 19:38 48.05891 13.78636 26014 ft 386 kts 270°
2026-05-07 19:39 48.05892 13.74714 25801 ft 379 kts 270°
2026-05-07 19:39 48.05890 13.70798 25333 ft 374 kts 270°
2026-05-07 19:39 48.05885 13.66931 24823 ft 371 kts 270°
2026-05-07 19:39 48.05878 13.63045 24304 ft 368 kts 270°
2026-05-07 19:40 48.05869 13.59234 23807 ft 365 kts 270°
2026-05-07 19:40 48.05859 13.55449 23265 ft 363 kts 270°
2026-05-07 19:40 48.05901 13.51730 22809 ft 362 kts 273°
2026-05-07 19:40 48.06061 13.47948 22325 ft 359 kts 275°
2026-05-07 19:41 48.06278 13.44288 21877 ft 356 kts 276°
2026-05-07 19:41 48.06521 13.40569 21430 ft 354 kts 276°
2026-05-07 19:41 48.06758 13.36916 20989 ft 352 kts 276°
2026-05-07 19:41 48.06979 13.33284 20552 ft 349 kts 275°
2026-05-07 19:42 48.07186 13.29679 20129 ft 347 kts 275°
2026-05-07 19:42 48.07380 13.26087 19704 ft 345 kts 275°
2026-05-07 19:42 48.07565 13.22514 19287 ft 343 kts 275°
2026-05-07 19:42 48.07746 13.18968 18882 ft 341 kts 275°
2026-05-07 19:43 48.07960 13.15447 18482 ft 339 kts 281°
2026-05-07 19:43 48.08728 13.12143 18017 ft 335 kts 294°
2026-05-07 19:43 48.09719 13.08990 17498 ft 334 kts 295°
2026-05-07 19:43 48.10726 13.05872 17011 ft 332 kts 295°
2026-05-07 19:44 48.11735 13.02773 16538 ft 330 kts 295°
2026-05-07 19:44 48.12741 12.99694 16078 ft 328 kts 295°
2026-05-07 19:44 48.13744 12.96635 15638 ft 326 kts 295°
2026-05-07 19:44 48.14745 12.93600 15200 ft 324 kts 295°
2026-05-07 19:45 48.15744 12.90580 14767 ft 323 kts 295°
2026-05-07 19:45 48.16740 12.87585 14343 ft 321 kts 295°
2026-05-07 19:45 48.17734 12.84604 13921 ft 319 kts 295°
2026-05-07 19:45 48.18731 12.81625 13560 ft 319 kts 295°
2026-05-07 19:46 48.19722 12.78668 13183 ft 317 kts 295°
2026-05-07 19:46 48.20705 12.75728 12812 ft 315 kts 295°
2026-05-07 19:46 48.21686 12.72797 12442 ft 312 kts 295°
2026-05-07 19:46 48.22648 12.69920 12121 ft 305 kts 295°
2026-05-07 19:47 48.23580 12.67141 12063 ft 291 kts 295°
2026-05-07 19:47 48.24470 12.64491 11970 ft 280 kts 295°
2026-05-07 19:47 48.25344 12.61899 11655 ft 278 kts 295°
2026-05-07 19:47 48.26214 12.59318 11391 ft 277 kts 295°
2026-05-07 19:48 48.27081 12.56748 11176 ft 276 kts 295°
2026-05-07 19:48 48.27947 12.54187 10999 ft 275 kts 295°
2026-05-07 19:48 48.28811 12.51628 10824 ft 274 kts 295°
2026-05-07 19:48 48.29675 12.49076 10655 ft 273 kts 295°
2026-05-07 19:49 48.30532 12.46543 10351 ft 271 kts 295°
2026-05-07 19:49 48.31386 12.44020 9975 ft 270 kts 295°
2026-05-07 19:49 48.32231 12.41517 9569 ft 268 kts 295°
2026-05-07 19:49 48.33071 12.39020 9144 ft 267 kts 295°
2026-05-07 19:50 48.33906 12.36524 8715 ft 266 kts 295°
2026-05-07 19:50 48.34734 12.34036 8293 ft 265 kts 295°
2026-05-07 19:50 48.35554 12.31557 7873 ft 264 kts 295°
2026-05-07 19:50 48.36366 12.29080 7455 ft 263 kts 295°
2026-05-07 19:51 48.37169 12.26610 7036 ft 262 kts 293°
2026-05-07 19:51 48.37647 12.23999 6624 ft 259 kts 272°
2026-05-07 19:51 48.37523 12.21299 6172 ft 259 kts 263°
2026-05-07 19:51 48.37323 12.18610 5704 ft 259 kts 264°
2026-05-07 19:52 48.37127 12.15926 5434 ft 259 kts 264°
2026-05-07 19:52 48.36929 12.13216 5311 ft 261 kts 264°
2026-05-07 19:52 48.36730 12.10507 5210 ft 261 kts 264°
2026-05-07 19:52 48.36530 12.07798 5058 ft 260 kts 264°
2026-05-07 19:53 48.36331 12.05098 4764 ft 260 kts 264°
2026-05-07 19:53 48.36130 12.02397 4413 ft 258 kts 264°
2026-05-07 19:53 48.35933 11.99748 4059 ft 253 kts 264°
2026-05-07 19:53 48.35738 11.97144 3733 ft 248 kts 264°
2026-05-07 19:54 48.35547 11.94591 3406 ft 243 kts 264°
2026-05-07 19:54 48.35359 11.92091 3081 ft 236 kts 264°
2026-05-07 19:54 48.35179 11.89714 2774 ft 221 kts 264°
2026-05-07 19:54 48.35012 11.87495 2499 ft 206 kts 264°
2026-05-07 19:55 48.34855 11.85430 2186 ft 192 kts 264°
2026-05-07 19:55 48.34709 11.83503 1931 ft 179 kts 264°
2026-05-07 19:55 48.34572 11.81705 1708 ft 165 kts 267°
2026-05-07 19:55 48.34447 11.80099 1518 ft 146 kts 269°
2026-05-07 19:56 48.34347 11.78736 1480 ft 108 kts 263°
2026-05-07 19:56 48.34287 11.78065 1482 ft 19 kts 256°
2026-05-07 19:56 48.34310 11.77969 1480 ft 8 kts 294°
2026-05-07 19:56 48.34338 11.77917 1486 ft 8 kts 314°
2026-05-07 19:57 48.34372 11.77804 1483 ft 14 kts 291°
2026-05-07 19:57 48.34411 11.77664 1476 ft 15 kts 292°
2026-05-07 19:57 48.34443 11.77552 1475 ft 8 kts 294°
2026-05-07 19:57 48.34458 11.77505 1478 ft 2 kts 302°
2026-05-07 19:58 48.34465 11.77497 1481 ft 3 kts 327°
2026-05-07 19:58 48.34498 11.77500 1485 ft 3 kts 20°
2026-05-07 19:58 48.34542 11.77465 1481 ft 13 kts 323°
2026-05-07 19:58 48.34609 11.77458 1482 ft 11 kts 45°
2026-05-07 19:59 48.34634 11.77567 1485 ft 13 kts 82°
2026-05-07 19:59 48.34649 11.77730 1476 ft 18 kts 83°
2026-05-07 19:59 48.34666 11.77941 1485 ft 23 kts 83°
2026-05-07 19:59 48.34687 11.78201 1481 ft 26 kts 83°
2026-05-07 20:00 48.34707 11.78471 1486 ft 26 kts 83°
2026-05-07 20:00 48.34727 11.78737 1479 ft 26 kts 83°
2026-05-07 20:00 48.34749 11.79005 1486 ft 26 kts 83°
2026-05-07 20:00 48.34766 11.79232 1486 ft 13 kts 83°
2026-05-07 20:01 48.34777 11.79370 1479 ft 8 kts 83°
2026-05-07 20:01 48.34781 11.79423 1480 ft 0 kts 83°
2026-05-07 20:02 48.34782 11.79432 1486 ft 3 kts 83°
2026-05-07 20:03 48.34786 11.79487 1482 ft 7 kts 83°
2026-05-07 20:03 48.34819 11.79553 1486 ft 9 kts 24°
2026-05-07 20:03 48.34882 11.79553 1482 ft 7 kts 353°
2026-05-07 20:03 48.34923 11.79545 1482 ft 5 kts 353°
2026-05-07 20:04 48.34933 11.79543 1481 ft 2 kts 353°
2026-05-07 20:04 48.34973 11.79539 1486 ft 9 kts 355°
2026-05-07 20:04 48.35050 11.79532 1479 ft 12 kts
2026-05-07 20:04 48.35094 11.79631 1481 ft 13 kts 81°
2026-05-07 20:05 48.35106 11.79772 1486 ft 14 kts 83°
2026-05-07 20:05 48.35119 11.79928 1486 ft 16 kts 83°
2026-05-07 20:05 48.35131 11.80097 1476 ft 17 kts 84°
2026-05-07 20:05 48.35179 11.80188 1486 ft 12 kts
2026-05-07 20:06 48.35265 11.80173 1483 ft 13 kts 353°
2026-05-07 20:06 48.35323 11.80163 1486 ft 8 kts 353°
2026-05-07 20:06 48.35386 11.80150 1475 ft 10 kts 346°
2026-05-07 20:06 48.35455 11.80133 1483 ft 10 kts 353°
2026-05-07 20:07 48.35519 11.80122 1486 ft 4 kts 354°
2026-05-07 20:07 48.35555 11.80116 1482 ft 6 kts 353°
2026-05-07 20:07 48.35587 11.80110 1474 ft 0 kts 353°
2026-05-07 20:07 48.35591 11.80109 1473 ft 1 kts 353°
2026-05-07 20:08 48.35601 11.80108 1475 ft 2 kts 353°
2026-05-07 20:08 48.35625 11.80102 1483 ft 6 kts 346°
2026-05-07 20:08 48.35635 11.80045 1486 ft 6 kts 268°
2026-05-07 20:08 48.35633 11.80007 1481 ft 1 kts 265°
2026-05-07 20:09 48.35633 11.79994 1478 ft 1 kts 264°
2026-05-07 20:09 48.35632 11.79981 1486 ft 1 kts 264°
2026-05-07 20:09 48.35631 11.79977 1486 ft 0 kts 264°
2026-05-07 20:10 48.35631 11.79976 1475 ft 0 kts 263°